MEA998 OLBA-OLBA

Flight info

Callsign MEA998
Flight time 0h 48m
Altitude 6000
Route 335026N0352842E 335356N0352741E 335450N0352519E DCT 335311N0352413E 335031N0352512E 334648N0352623E 334754N0352852E DCT 334937N0353010E
Aircraft A320/M-SDE3FGHIRWY/LB1

Departure

Time 2026-05-08 15:03
Airport Beirut Rafic Hariri International Airport (OLBA)

Arrival

Time 2026-05-08 15:51
Airport Beirut Rafic Hariri International Airport (OLBA)
Time Latitude Longitude Altitude Speed Heading
2026-05-08 14:20 33.82373 35.49437 11 ft 0 kts 310°
2026-05-08 14:51 33.82371 35.49440 14 ft 3 kts 310°
2026-05-08 14:51 33.82354 35.49465 13 ft 4 kts 306°
2026-05-08 14:51 33.82340 35.49491 13 ft 4 kts 296°
2026-05-08 14:52 33.82332 35.49521 14 ft 4 kts 259°
2026-05-08 14:52 33.82337 35.49535 13 ft 3 kts 215°
2026-05-08 14:55 33.82331 35.49530 12 ft 3 kts 215°
2026-05-08 14:55 33.82299 35.49503 13 ft 8 kts 215°
2026-05-08 14:55 33.82239 35.49453 13 ft 13 kts 215°
2026-05-08 14:55 33.82176 35.49385 14 ft 12 kts 253°
2026-05-08 14:56 33.82187 35.49309 14 ft 10 kts 285°
2026-05-08 14:56 33.82211 35.49204 15 ft 16 kts 285°
2026-05-08 14:56 33.82237 35.49080 14 ft 6 kts 285°
2026-05-08 14:56 33.82272 35.49022 13 ft 12 kts 327°
2026-05-08 14:57 33.82369 35.49002 12 ft 17 kts 355°
2026-05-08 14:57 33.82506 35.48987 12 ft 22 kts 354°
2026-05-08 14:57 33.82644 35.48976 11 ft 21 kts
2026-05-08 14:57 33.82793 35.48997 12 ft 20 kts 358°
2026-05-08 14:58 33.82942 35.48988 12 ft 23 kts
2026-05-08 14:58 33.83106 35.48979 14 ft 23 kts 355°
2026-05-08 14:58 33.83276 35.48969 13 ft 24 kts 357°
2026-05-08 14:58 33.83451 35.48958 12 ft 23 kts 357°
2026-05-08 14:59 33.83478 35.48956 14 ft 23 kts 357°
2026-05-08 15:00 33.83538 35.48952 14 ft 17 kts 357°
2026-05-08 15:00 33.83668 35.48945 13 ft 21 kts 357°
2026-05-08 15:00 33.83763 35.48938 14 ft 13 kts 356°
2026-05-08 15:00 33.83827 35.48889 10 ft 9 kts 290°
2026-05-08 15:01 33.83830 35.48820 5 ft 10 kts 266°
2026-05-08 15:01 33.83828 35.48793 3 ft 7 kts 266°
2026-05-08 15:01 33.83817 35.48706 -1 ft 10 kts 238°
2026-05-08 15:03 33.79870 35.48877 1397 ft 181 kts 198°
2026-05-08 15:03 33.78925 35.47916 1527 ft 180 kts 247°
2026-05-08 15:03 33.78584 35.46470 1641 ft 183 kts 266°
2026-05-08 15:03 33.78616 35.45006 1623 ft 173 kts 297°
2026-05-08 15:04 33.79402 35.44011 1616 ft 164 kts 339°
2026-05-08 15:04 33.80497 35.43664 1585 ft 162 kts 352°
2026-05-08 15:04 33.81345 35.43569 1557 ft 161 kts 359°
2026-05-08 15:05 33.82463 35.43514 1528 ft 160 kts 359°
2026-05-08 15:05 33.83577 35.43438 1504 ft 160 kts 357°
2026-05-08 15:06 33.84690 35.43353 1511 ft 160 kts 358°
2026-05-08 15:06 33.85806 35.43281 1543 ft 161 kts 358°
2026-05-08 15:06 33.86925 35.43140 1517 ft 162 kts 354°
2026-05-08 15:06 33.88042 35.43040 1543 ft 158 kts 359°
2026-05-08 15:07 33.89009 35.43427 1456 ft 144 kts 43°
2026-05-08 15:07 33.89380 35.44467 1395 ft 134 kts 78°
2026-05-08 15:07 33.89473 35.45546 1278 ft 125 kts 81°
2026-05-08 15:07 33.89508 35.46590 1209 ft 125 kts 88°
2026-05-08 15:08 33.89362 35.47621 1125 ft 130 kts 116°
2026-05-08 15:08 33.88939 35.48121 1088 ft 132 kts 147°
2026-05-08 15:08 33.87750 35.48405 928 ft 135 kts 177°
2026-05-08 15:08 33.86810 35.48476 809 ft 134 kts 174°
2026-05-08 15:09 33.85882 35.48560 524 ft 133 kts 176°
2026-05-08 15:09 33.84967 35.48620 287 ft 131 kts 176°
2026-05-08 15:09 33.84059 35.48682 70 ft 131 kts 176°
2026-05-08 15:09 33.83193 35.48738 1 ft 114 kts 177°
2026-05-08 15:10 33.82307 35.48795 19 ft 165 kts 176°
2026-05-08 15:10 33.81094 35.48909 1003 ft 178 kts 174°
2026-05-08 15:10 33.79842 35.48722 1400 ft 186 kts 208°
2026-05-08 15:10 33.78961 35.47636 1523 ft 185 kts 247°
2026-05-08 15:11 33.78682 35.46183 1503 ft 177 kts 269°
2026-05-08 15:11 33.78850 35.44772 1546 ft 171 kts 304°
2026-05-08 15:11 33.79694 35.43842 1575 ft 164 kts 334°
2026-05-08 15:11 33.80777 35.43503 1582 ft 161 kts 358°
2026-05-08 15:12 33.81899 35.43445 1570 ft 162 kts 359°
2026-05-08 15:12 33.83018 35.43384 1596 ft 161 kts 359°
2026-05-08 15:12 33.84134 35.43316 1582 ft 161 kts 359°
2026-05-08 15:12 33.85248 35.43277 1545 ft 160 kts
2026-05-08 15:13 33.86367 35.43219 1552 ft 162 kts 356°
2026-05-08 15:13 33.87495 35.43106 1580 ft 163 kts 356°
2026-05-08 15:13 33.88580 35.43072 1548 ft 149 kts 13°
2026-05-08 15:13 33.89372 35.43761 1415 ft 140 kts 60°
2026-05-08 15:14 33.89453 35.44870 1351 ft 130 kts 91°
2026-05-08 15:14 33.89340 35.45935 1286 ft 127 kts 93°
2026-05-08 15:14 33.89210 35.46967 1202 ft 126 kts 95°
2026-05-08 15:14 33.88755 35.47880 1076 ft 133 kts 137°
2026-05-08 15:15 33.87900 35.48309 924 ft 134 kts 169°
2026-05-08 15:15 33.86980 35.48444 818 ft 132 kts 171°
2026-05-08 15:15 33.86055 35.48537 560 ft 132 kts 176°
2026-05-08 15:15 33.85144 35.48601 299 ft 130 kts 177°
2026-05-08 15:16 33.84255 35.48667 114 ft 129 kts 176°
2026-05-08 15:16 33.83369 35.48728 4 ft 119 kts 178°
2026-05-08 15:16 33.82575 35.48778 5 ft 132 kts 176°
2026-05-08 15:16 33.81442 35.48851 600 ft 175 kts 177°
2026-05-08 15:17 33.80166 35.48929 1356 ft 192 kts 179°
2026-05-08 15:17 33.78938 35.48429 1421 ft 186 kts 221°
2026-05-08 15:17 33.78250 35.47179 1492 ft 179 kts 261°
2026-05-08 15:17 33.78086 35.45709 1566 ft 177 kts 279°
2026-05-08 15:18 33.78579 35.44453 1513 ft 165 kts 323°
2026-05-08 15:18 33.79562 35.43776 1510 ft 162 kts 342°
2026-05-08 15:18 33.80647 35.43458 1472 ft 159 kts 356°
2026-05-08 15:18 33.81760 35.43393 1512 ft 160 kts 359°
2026-05-08 15:19 33.82874 35.43337 1523 ft 161 kts 359°
2026-05-08 15:19 33.83974 35.43288 1534 ft 160 kts 359°
2026-05-08 15:19 33.85090 35.43222 1511 ft 160 kts 358°
2026-05-08 15:19 33.86207 35.43124 1521 ft 162 kts 358°
2026-05-08 15:20 33.87331 35.43058 1524 ft 162 kts 358°
2026-05-08 15:20 33.88417 35.43056 1494 ft 147 kts 15°
2026-05-08 15:20 33.89110 35.43784 1384 ft 131 kts 68°
2026-05-08 15:20 33.89179 35.44860 1284 ft 126 kts 84°
2026-05-08 15:21 33.89188 35.45906 1191 ft 124 kts 85°
2026-05-08 15:21 33.89152 35.46932 1108 ft 122 kts 89°
2026-05-08 15:21 33.88795 35.47868 956 ft 131 kts 136°
2026-05-08 15:21 33.87954 35.48313 796 ft 134 kts 167°
2026-05-08 15:22 33.87041 35.48452 677 ft 133 kts 176°
2026-05-08 15:22 33.86126 35.48536 545 ft 131 kts 175°
2026-05-08 15:22 33.85226 35.48599 321 ft 129 kts 176°
2026-05-08 15:22 33.84330 35.48659 139 ft 129 kts 176°
2026-05-08 15:23 33.83442 35.48723 3 ft 120 kts 176°
2026-05-08 15:23 33.82644 35.48773 6 ft 134 kts 178°
2026-05-08 15:23 33.81489 35.48861 598 ft 184 kts 176°
2026-05-08 15:23 33.80060 35.48955 1363 ft 225 kts 183°
2026-05-08 15:24 33.78614 35.48335 1528 ft 215 kts 220°
2026-05-08 15:24 33.77842 35.46932 1516 ft 193 kts 261°
2026-05-08 15:24 33.77831 35.45403 1522 ft 177 kts 289°
2026-05-08 15:24 33.78417 35.44179 1539 ft 167 kts 322°
2026-05-08 15:25 33.79445 35.43639 1557 ft 161 kts 355°
2026-05-08 15:25 33.80561 35.43566 1532 ft 160 kts 359°
2026-05-08 15:25 33.81664 35.43506 1571 ft 161 kts 359°
2026-05-08 15:25 33.82777 35.43447 1550 ft 160 kts 358°
2026-05-08 15:26 33.83887 35.43375 1540 ft 160 kts 358°
2026-05-08 15:26 33.84998 35.43309 1503 ft 160 kts 358°
2026-05-08 15:26 33.86119 35.43249 1510 ft 161 kts 359°
2026-05-08 15:26 33.87243 35.43175 1509 ft 162 kts 358°
2026-05-08 15:27 33.88335 35.43159 1513 ft 150 kts 12°
2026-05-08 15:27 33.89144 35.43804 1385 ft 139 kts 58°
2026-05-08 15:27 33.89310 35.44900 1267 ft 132 kts 85°
2026-05-08 15:27 33.89290 35.45980 1187 ft 124 kts 88°
2026-05-08 15:28 33.89244 35.47007 1106 ft 123 kts 91°
2026-05-08 15:28 33.88838 35.47926 1027 ft 129 kts 137°
2026-05-08 15:28 33.87993 35.48322 882 ft 132 kts 169°
2026-05-08 15:28 33.87072 35.48460 718 ft 134 kts 175°
2026-05-08 15:29 33.86154 35.48533 534 ft 129 kts 176°
2026-05-08 15:29 33.85261 35.48601 319 ft 128 kts 176°
2026-05-08 15:29 33.84373 35.48660 143 ft 128 kts 176°
2026-05-08 15:29 33.83484 35.48720 3 ft 123 kts 176°
2026-05-08 15:30 33.82685 35.48775 4 ft 125 kts 178°
2026-05-08 15:30 33.81586 35.48841 484 ft 176 kts 176°
2026-05-08 15:30 33.80765 35.48896 1087 ft 177 kts 176°
2026-05-08 15:30 33.79232 35.48277 1439 ft 184 kts 230°
2026-05-08 15:31 33.78740 35.46927 1499 ft 177 kts 267°
2026-05-08 15:31 33.78848 35.45503 1509 ft 169 kts 301°
2026-05-08 15:31 33.79610 35.44500 1507 ft 162 kts 332°
2026-05-08 15:31 33.80651 35.44050 1549 ft 160 kts 353°
2026-05-08 15:32 33.81400 35.43964 1457 ft 158 kts 359°
2026-05-08 15:32 33.82499 35.43853 1408 ft 159 kts 354°
2026-05-08 15:32 33.83572 35.43684 1447 ft 159 kts 359°
2026-05-08 15:32 33.84681 35.43623 1472 ft 161 kts 356°
2026-05-08 15:33 33.85793 35.43568 1554 ft 160 kts 358°
2026-05-08 15:33 33.86910 35.43448 1515 ft 161 kts 357°
2026-05-08 15:33 33.88014 35.43362 1532 ft 152 kts 359°
2026-05-08 15:33 33.88942 35.43770 1408 ft 144 kts 45°
2026-05-08 15:34 33.89297 35.44832 1287 ft 135 kts 82°
2026-05-08 15:34 33.89257 35.45927 1204 ft 125 kts 91°
2026-05-08 15:34 33.89129 35.46954 1078 ft 124 kts 99°
2026-05-08 15:34 33.88725 35.47871 946 ft 127 kts 135°
2026-05-08 15:35 33.87896 35.48308 822 ft 131 kts 167°
2026-05-08 15:35 33.86994 35.48423 677 ft 130 kts 173°
2026-05-08 15:35 33.86101 35.48527 518 ft 128 kts 174°
2026-05-08 15:35 33.85220 35.48602 312 ft 126 kts 176°
2026-05-08 15:36 33.84353 35.48661 143 ft 127 kts 176°
2026-05-08 15:36 33.83478 35.48719 3 ft 121 kts 176°
2026-05-08 15:36 33.82684 35.48771 4 ft 127 kts 176°
2026-05-08 15:36 33.81573 35.48843 616 ft 174 kts 176°
2026-05-08 15:37 33.80222 35.48671 1338 ft 221 kts 200°
2026-05-08 15:37 33.79248 35.48091 1477 ft 207 kts 212°
2026-05-08 15:37 33.78071 35.47184 1557 ft 205 kts 215°
2026-05-08 15:37 33.76840 35.46188 1563 ft 216 kts 215°
2026-05-08 15:38 33.75592 35.45167 1557 ft 218 kts 216°
2026-05-08 15:38 33.74335 35.44143 1662 ft 226 kts 216°
2026-05-08 15:38 33.73088 35.42770 2261 ft 256 kts 239°
2026-05-08 15:38 33.72334 35.40791 2761 ft 264 kts 253°
2026-05-08 15:39 33.71988 35.38620 2913 ft 266 kts 275°
2026-05-08 15:39 33.72484 35.36551 2971 ft 262 kts 301°
2026-05-08 15:39 33.73744 35.35024 2947 ft 257 kts 332°
2026-05-08 15:39 33.75396 35.34252 2953 ft 255 kts 344°
2026-05-08 15:40 33.77092 35.33650 2954 ft 253 kts 345°
2026-05-08 15:40 33.78789 35.33059 2950 ft 252 kts 345°
2026-05-08 15:40 33.80420 35.32483 2950 ft 236 kts 345°
2026-05-08 15:40 33.81947 35.31950 2952 ft 224 kts 345°
2026-05-08 15:41 33.83437 35.31429 2954 ft 222 kts 345°
2026-05-08 15:41 33.84922 35.30913 2956 ft 222 kts 345°
2026-05-08 15:41 33.86408 35.30398 2956 ft 222 kts 345°
2026-05-08 15:41 33.87887 35.29881 2956 ft 221 kts 345°
2026-05-08 15:42 33.89369 35.29386 2958 ft 221 kts 348°
2026-05-08 15:42 33.90867 35.28973 2958 ft 221 kts 349°
2026-05-08 15:42 33.92365 35.28574 2958 ft 221 kts 349°
2026-05-08 15:42 33.93862 35.28176 2958 ft 220 kts 349°
2026-05-08 15:43 33.95358 35.27788 2958 ft 220 kts 349°
2026-05-08 15:43 33.96850 35.27400 2959 ft 219 kts 349°
2026-05-08 15:43 33.98343 35.27006 2958 ft 220 kts 349°
2026-05-08 15:43 33.99853 35.26832 2957 ft 218 kts 10°
2026-05-08 15:44 34.01135 35.27590 2951 ft 205 kts 44°
2026-05-08 15:44 34.01811 35.29095 2955 ft 204 kts 71°
2026-05-08 15:44 34.02130 35.30740 2955 ft 205 kts 76°
2026-05-08 15:44 34.02389 35.32428 2957 ft 205 kts 76°
2026-05-08 15:45 34.02642 35.34123 2954 ft 205 kts 76°
2026-05-08 15:45 34.02892 35.35820 2959 ft 206 kts 76°
2026-05-08 15:45 34.03147 35.37518 2956 ft 203 kts 76°
2026-05-08 15:45 34.03384 35.39132 2950 ft 188 kts 76°
2026-05-08 15:46 34.03459 35.40659 2954 ft 184 kts 97°
2026-05-08 15:46 34.02909 35.42055 2961 ft 190 kts 128°
2026-05-08 15:46 34.01886 35.43037 2957 ft 190 kts 155°
2026-05-08 15:46 34.00601 35.43272 2983 ft 187 kts 174°
2026-05-08 15:47 33.99338 35.43578 2977 ft 184 kts 164°
2026-05-08 15:47 33.98101 35.43949 2800 ft 183 kts 164°
2026-05-08 15:47 33.96871 35.44302 2581 ft 180 kts 165°
2026-05-08 15:47 33.95694 35.44633 2362 ft 168 kts 165°
2026-05-08 15:48 33.93507 35.45244 1959 ft 158 kts 164°
2026-05-08 15:48 33.92438 35.45542 1742 ft 157 kts 164°
2026-05-08 15:48 33.91377 35.45838 1532 ft 156 kts 165°
2026-05-08 15:49 33.90362 35.46120 1353 ft 143 kts 165°
2026-05-08 15:49 33.89425 35.46381 1159 ft 135 kts 165°
2026-05-08 15:49 33.88515 35.46635 984 ft 133 kts 163°
2026-05-08 15:49 33.87621 35.46884 824 ft 130 kts 166°
2026-05-08 15:50 33.86746 35.47127 650 ft 128 kts 166°
2026-05-08 15:50 33.85879 35.47367 455 ft 128 kts 167°
2026-05-08 15:50 33.85009 35.47607 292 ft 129 kts 166°
2026-05-08 15:50 33.84142 35.47850 107 ft 127 kts 166°
2026-05-08 15:51 33.83296 35.48090 14 ft 117 kts 166°
2026-05-08 15:51 33.82629 35.48273 18 ft 75 kts 167°
2026-05-08 15:51 33.82213 35.48388 14 ft 50 kts 167°
2026-05-08 15:51 33.81955 35.48505 13 ft 37 kts 144°
2026-05-08 15:52 33.81802 35.48672 13 ft 30 kts 136°
2026-05-08 15:52 33.81734 35.48846 10 ft 20 kts 105°
2026-05-08 15:52 33.81707 35.48987 13 ft 13 kts 90°
2026-05-08 15:52 33.81787 35.49070 14 ft 19 kts 33°
2026-05-08 15:53 33.81911 35.49177 15 ft 25 kts 35°
2026-05-08 15:53 33.82066 35.49307 15 ft 30 kts 35°
2026-05-08 15:53 33.82198 35.49419 16 ft 20 kts 35°
2026-05-08 15:53 33.82298 35.49502 14 ft 6 kts 32°
2026-05-08 15:54 33.82347 35.49477 13 ft 7 kts 309°
2026-05-08 15:54 33.82369 35.49443 14 ft 4 kts 310°
2026-05-08 15:54 33.82372 35.49439 14 ft 0 kts 310°